Voltar ao catálogo

COSMOS 1932 FUEL CORE

AtivoLEO
NORAD 19162·DEBRIS·🇷🇺 Russia

Lançado Mar 14, 1988 de Baikonur Cosmodrome

Loading…

Próximas Passagens (próximas 24 horas)

TLE

AtualizadoSource: Space-Track

Época: Sep 14, 2026, 13:38 UTC

1 19162U 88019D   26257.56851763 -.00000079  00000-0  85541-5 0  9993
2 19162  65.0463   6.2216 0025503 205.6618 166.8498 13.83935685936477

Acompanhe COSMOS 1932 FUEL CORE em tempo real com AllMySat

Download on the App Store